AZU6050 SBFZ-SOCA

Flight info

Callsign AZU6050
Flight time 2h 18m
Altitude 37000
Route ASOVU DCT POSPI UM791 SIKUD DCT ALDIX ALDIX1S
Aircraft A332/H-SDE3GHIJ2J3J5M1RVWXY/LB2D1

Departure

Time 2026-05-04 10:46
Airport Pinto Martins International Airport (SBFZ)

Arrival

Time 2026-05-04 13:05
Airport Cayenne – Félix Eboué Airport (SOCA)
Time Latitude Longitude Altitude Speed Heading
2026-05-04 10:25 -3.77761 -38.54108 85 ft 0 kts 203°
2026-05-04 10:40 -3.77756 -38.54106 90 ft 4 kts 202°
2026-05-04 10:40 -3.77731 -38.54095 88 ft 4 kts 202°
2026-05-04 10:41 -3.77710 -38.54087 91 ft 4 kts 208°
2026-05-04 10:41 -3.77692 -38.54070 90 ft 4 kts 251°
2026-05-04 10:41 -3.77690 -38.54045 89 ft 4 kts 282°
2026-05-04 10:41 -3.77695 -38.54026 90 ft 0 kts 285°
2026-05-04 10:44 -3.77549 -38.54377 87 ft 17 kts 342°
2026-05-04 10:45 -3.77437 -38.54376 90 ft 16 kts 12°
2026-05-04 10:45 -3.77351 -38.54335 94 ft 12 kts 62°
2026-05-04 10:45 -3.77358 -38.54280 91 ft 0 kts 105°
2026-05-04 10:45 -3.77359 -38.54276 91 ft 4 kts 105°
2026-05-04 10:46 -3.77411 -38.54084 92 ft 63 kts 105°
2026-05-04 10:46 -3.77585 -38.53433 90 ft 129 kts 105°
2026-05-04 10:46 -3.77868 -38.52407 368 ft 163 kts 108°
2026-05-04 10:46 -3.78171 -38.51328 1301 ft 159 kts 105°
2026-05-04 10:47 -3.78397 -38.50210 2065 ft 177 kts 90°
2026-05-04 10:47 -3.78169 -38.49371 2306 ft 205 kts 62°
2026-05-04 10:47 -3.76969 -38.48393 2666 ft 247 kts 22°
2026-05-04 10:47 -3.75186 -38.48342 3254 ft 271 kts 345°
2026-05-04 10:49 -3.64414 -38.56567 9515 ft 299 kts 315°
2026-05-04 10:49 -3.63100 -38.58208 10333 ft 308 kts 307°
2026-05-04 10:50 -3.61908 -38.60086 10700 ft 332 kts 302°
2026-05-04 10:51 -3.53440 -38.76310 14934 ft 394 kts 300°
2026-05-04 10:52 -3.52129 -38.78741 15588 ft 398 kts 300°
2026-05-04 10:52 -3.50802 -38.81197 16203 ft 403 kts 300°
2026-05-04 10:52 -3.49458 -38.83683 16807 ft 408 kts 300°
2026-05-04 10:54 -3.39728 -39.01710 20573 ft 431 kts 300°
2026-05-04 10:54 -3.38299 -39.04358 21064 ft 434 kts 300°
2026-05-04 10:56 -3.28002 -39.23435 24032 ft 457 kts 300°
2026-05-04 10:56 -3.26486 -39.26244 24416 ft 459 kts 300°
2026-05-04 10:56 -3.24965 -39.29061 24808 ft 461 kts 300°
2026-05-04 10:57 -3.23434 -39.31897 25196 ft 464 kts 300°
2026-05-04 10:57 -3.21899 -39.34740 25593 ft 466 kts 299°
2026-05-04 10:57 -3.20357 -39.37595 25997 ft 468 kts 299°
2026-05-04 10:57 -3.18806 -39.40468 26389 ft 470 kts 299°
2026-05-04 10:58 -3.17247 -39.43353 26774 ft 472 kts 299°
2026-05-04 10:58 -3.15682 -39.46251 27157 ft 475 kts 298°
2026-05-04 10:58 -3.14109 -39.49163 27541 ft 477 kts 298°
2026-05-04 10:58 -3.12524 -39.52096 27911 ft 480 kts 298°
2026-05-04 10:59 -3.10936 -39.55035 28305 ft 482 kts 298°
2026-05-04 10:59 -3.09337 -39.57995 28671 ft 484 kts 298°
2026-05-04 10:59 -3.07732 -39.60965 29046 ft 486 kts 298°
2026-05-04 10:59 -3.06121 -39.63946 29431 ft 488 kts 298°
2026-05-04 11:00 -3.04503 -39.66939 29797 ft 491 kts 298°
2026-05-04 11:01 -2.93007 -39.88198 32175 ft 497 kts 298°
2026-05-04 11:02 -2.91362 -39.91240 32484 ft 498 kts 297°
2026-05-04 11:02 -2.89711 -39.94292 32819 ft 499 kts 297°
2026-05-04 11:05 -2.67516 -40.35301 36977 ft 470 kts 297°
2026-05-04 11:06 -2.64402 -40.41052 36980 ft 470 kts 297°
2026-05-04 11:06 -2.61289 -40.46801 36985 ft 470 kts 297°
2026-05-04 11:10 -2.39298 -40.87383 36980 ft 474 kts 297°
2026-05-04 11:12 -2.26720 -41.10579 36980 ft 477 kts 297°
2026-05-04 11:12 -2.23550 -41.16425 36977 ft 479 kts 297°
2026-05-04 11:13 -2.20378 -41.22270 36976 ft 478 kts 297°
2026-05-04 11:13 -2.17206 -41.28116 36975 ft 478 kts 296°
2026-05-04 11:14 -2.16670 -41.29104 36976 ft 478 kts 296°
2026-05-04 11:16 -2.01297 -41.57430 36973 ft 480 kts 297°
2026-05-04 11:16 -1.98109 -41.63300 36974 ft 480 kts 297°
2026-05-04 11:17 -1.94945 -41.69129 36974 ft 480 kts 297°
2026-05-04 11:19 -1.82198 -41.92599 36977 ft 481 kts 296°
2026-05-04 11:19 -1.79007 -41.98474 36974 ft 481 kts 296°
2026-05-04 11:20 -1.75812 -42.04353 36975 ft 481 kts 296°
2026-05-04 11:20 -1.72622 -42.10227 36975 ft 480 kts 297°
2026-05-04 11:22 -1.59887 -42.33659 36977 ft 481 kts 296°
2026-05-04 11:23 -1.56690 -42.39541 36972 ft 481 kts 297°
2026-05-04 11:25 -1.45510 -42.60106 36972 ft 481 kts 297°
2026-05-04 11:25 -1.42316 -42.65978 36970 ft 480 kts 297°
2026-05-04 11:27 -1.25006 -42.90120 36974 ft 480 kts 310°
2026-05-04 11:28 -1.20546 -42.95094 36971 ft 480 kts 310°
2026-05-04 11:28 -1.16102 -43.00074 36971 ft 480 kts 310°
2026-05-04 11:29 -1.11654 -43.05074 36972 ft 480 kts 310°
2026-05-04 11:29 -1.07234 -43.10045 36969 ft 481 kts 310°
2026-05-04 11:33 -0.76117 -43.45021 36974 ft 482 kts 310°
2026-05-04 11:33 -0.71661 -43.50030 36974 ft 482 kts 310°
2026-05-04 11:34 -0.67954 -43.54195 36974 ft 482 kts 310°
2026-05-04 11:34 -0.62780 -43.60010 36971 ft 482 kts 310°
2026-05-04 11:35 -0.58324 -43.65016 36973 ft 481 kts 310°
2026-05-04 11:35 -0.54598 -43.69204 36975 ft 481 kts 310°
2026-05-04 11:36 -0.52374 -43.71703 38586 ft 481 kts 311°
2026-05-04 11:36 -0.50144 -43.74206 36752 ft 486 kts 311°
2026-05-04 11:36 -0.47883 -43.76746 36583 ft 490 kts 311°
2026-05-04 11:36 -0.45641 -43.79266 36751 ft 482 kts 310°
2026-05-04 11:37 -0.44538 -43.80506 36866 ft 479 kts 311°
2026-05-04 11:37 -0.42141 -43.83201 36964 ft 482 kts 310°
2026-05-04 11:38 -0.37686 -43.88209 36974 ft 482 kts 311°
2026-05-04 11:38 -0.33470 -43.92946 36970 ft 481 kts 310°
2026-05-04 11:39 -0.33262 -43.93179 36968 ft 481 kts 310°
2026-05-04 11:41 -0.26649 -44.00614 36970 ft 485 kts 310°
2026-05-04 11:41 -0.22176 -44.05638 36975 ft 482 kts 311°
2026-05-04 11:42 -0.17739 -44.10621 36974 ft 480 kts 310°
2026-05-04 11:42 -0.13293 -44.15617 36974 ft 480 kts 311°
2026-05-04 11:43 -0.08851 -44.20608 36970 ft 480 kts 310°
2026-05-04 11:43 -0.04412 -44.25595 36970 ft 480 kts 311°
2026-05-04 11:44 0.00014 -44.30568 36980 ft 479 kts 310°
2026-05-04 11:44 0.04440 -44.35540 36974 ft 478 kts 310°
2026-05-04 11:45 0.08831 -44.40474 36974 ft 479 kts 310°
2026-05-04 11:45 0.13256 -44.45446 36973 ft 479 kts 310°
2026-05-04 11:46 0.17681 -44.50419 36973 ft 479 kts 310°
2026-05-04 11:46 0.22105 -44.55389 36976 ft 478 kts 310°
2026-05-04 11:47 0.26524 -44.60353 36978 ft 478 kts 311°
2026-05-04 11:47 0.30944 -44.65320 36977 ft 478 kts 311°
2026-05-04 11:48 0.35365 -44.70286 36979 ft 478 kts 311°
2026-05-04 11:48 0.39784 -44.75252 36980 ft 479 kts 310°
2026-05-04 11:49 0.44209 -44.80224 36981 ft 478 kts 311°
2026-05-04 11:49 0.48631 -44.85192 36984 ft 478 kts 311°
2026-05-04 11:50 0.53048 -44.90156 36981 ft 478 kts 311°
2026-05-04 11:50 0.57472 -44.95127 36982 ft 480 kts 311°
2026-05-04 11:51 0.61895 -45.00098 36980 ft 482 kts 311°
2026-05-04 11:51 0.66360 -45.05115 36982 ft 483 kts 311°
2026-05-04 11:52 0.70818 -45.10126 36983 ft 482 kts 311°
2026-05-04 11:52 0.75264 -45.15121 36982 ft 481 kts 311°
2026-05-04 11:53 0.79722 -45.20132 36981 ft 483 kts 311°
2026-05-04 11:53 0.84186 -45.25149 36984 ft 484 kts 311°
2026-05-04 11:55 1.02188 -45.45385 36986 ft 487 kts 310°
2026-05-04 11:56 1.06663 -45.50416 38590 ft 485 kts 311°
2026-05-04 11:56 1.08914 -45.52948 36894 ft 489 kts 311°
2026-05-04 11:56 1.11173 -45.55487 36975 ft 488 kts 311°
2026-05-04 11:57 1.15644 -45.60513 36988 ft 486 kts 310°
2026-05-04 11:57 1.20145 -45.65574 36980 ft 487 kts 311°
2026-05-04 11:58 1.24644 -45.70632 36986 ft 487 kts 310°
2026-05-04 11:58 1.29150 -45.75700 36985 ft 488 kts 310°
2026-05-04 11:59 1.33665 -45.80777 36979 ft 487 kts 311°
2026-05-04 11:59 1.38123 -45.85790 36986 ft 484 kts 310°
2026-05-04 12:00 1.42583 -45.90805 36986 ft 482 kts 310°
2026-05-04 12:00 1.47026 -45.95803 36987 ft 480 kts 310°
2026-05-04 12:01 1.51453 -46.00783 36987 ft 478 kts 311°
2026-05-04 12:02 1.66873 -46.18130 36986 ft 476 kts 310°
2026-05-04 12:03 1.71254 -46.23059 36985 ft 473 kts 311°
2026-05-04 12:03 1.75593 -46.27941 36984 ft 473 kts 310°
2026-05-04 12:04 1.79957 -46.32852 36985 ft 473 kts 311°
2026-05-04 12:04 1.84330 -46.37773 36986 ft 474 kts 311°
2026-05-04 12:05 1.88705 -46.42696 36987 ft 472 kts 311°
2026-05-04 12:05 1.93061 -46.47599 36988 ft 471 kts 311°
2026-05-04 12:06 1.97421 -46.52506 36991 ft 473 kts 310°
2026-05-04 12:06 2.01789 -46.57423 36993 ft 473 kts 310°
2026-05-04 12:07 2.05550 -46.62724 36990 ft 466 kts 294°
2026-05-04 12:07 2.08111 -46.68668 36987 ft 465 kts 291°
2026-05-04 12:08 2.10563 -46.74659 36989 ft 467 kts 291°
2026-05-04 12:08 2.13000 -46.80639 36989 ft 468 kts 291°
2026-05-04 12:09 2.15460 -46.86676 36987 ft 469 kts 291°
2026-05-04 12:09 2.17912 -46.92700 36989 ft 468 kts 291°
2026-05-04 12:10 2.20365 -46.98723 36991 ft 467 kts 291°
2026-05-04 12:10 2.22820 -47.04756 36988 ft 469 kts 291°
2026-05-04 12:11 2.25283 -47.10806 36991 ft 470 kts 291°
2026-05-04 12:11 2.27731 -47.16824 36990 ft 471 kts 291°
2026-05-04 12:12 2.30203 -47.22897 36991 ft 472 kts 291°
2026-05-04 12:12 2.32677 -47.28979 36990 ft 472 kts 290°
2026-05-04 12:14 2.42586 -47.53344 36992 ft 474 kts 291°
2026-05-04 12:15 2.45068 -47.59449 36994 ft 473 kts 290°
2026-05-04 12:15 2.47547 -47.65550 36993 ft 473 kts 291°
2026-05-04 12:16 2.50009 -47.71607 36993 ft 474 kts 291°
2026-05-04 12:16 2.52491 -47.77717 36994 ft 474 kts 291°
2026-05-04 12:17 2.54978 -47.83838 36993 ft 474 kts 291°
2026-05-04 12:17 2.57454 -47.89933 36994 ft 473 kts 291°
2026-05-04 12:18 2.59926 -47.96020 36998 ft 473 kts 291°
2026-05-04 12:18 2.62401 -48.02114 36997 ft 473 kts 291°
2026-05-04 12:19 2.64858 -48.08165 36996 ft 471 kts 291°
2026-05-04 12:19 2.67327 -48.14248 36996 ft 472 kts 291°
2026-05-04 12:20 2.69794 -48.20325 36997 ft 471 kts 291°
2026-05-04 12:20 2.72256 -48.26390 36995 ft 470 kts 291°
2026-05-04 12:21 2.74709 -48.32438 37000 ft 469 kts 291°
2026-05-04 12:21 2.77166 -48.38493 36998 ft 470 kts 291°
2026-05-04 12:22 2.79626 -48.44557 37001 ft 470 kts 291°
2026-05-04 12:22 2.82072 -48.50586 36998 ft 470 kts 291°
2026-05-04 12:23 2.84529 -48.56645 36999 ft 470 kts 291°
2026-05-04 12:23 2.86985 -48.62703 36998 ft 469 kts 291°
2026-05-04 12:24 2.89436 -48.68750 36998 ft 469 kts 290°
2026-05-04 12:24 2.91889 -48.74801 36999 ft 470 kts 291°
2026-05-04 12:25 2.93930 -48.79838 37000 ft 470 kts 291°
2026-05-04 12:25 2.96790 -48.86896 36998 ft 469 kts 291°
2026-05-04 12:26 2.98842 -48.91962 36998 ft 469 kts 291°
2026-05-04 12:26 3.01269 -48.97954 36998 ft 469 kts 291°
2026-05-04 12:27 3.03721 -49.04008 37001 ft 469 kts 291°
2026-05-04 12:27 3.06175 -49.10071 37002 ft 471 kts 291°
2026-05-04 12:28 3.08614 -49.16096 37001 ft 469 kts 291°
2026-05-04 12:28 3.11062 -49.22144 37000 ft 468 kts 291°
2026-05-04 12:29 3.13502 -49.28174 37003 ft 468 kts 291°
2026-05-04 12:29 3.15946 -49.34216 37003 ft 469 kts 291°
2026-05-04 12:30 3.18394 -49.40269 37000 ft 469 kts 291°
2026-05-04 12:30 3.20847 -49.46334 36972 ft 471 kts 290°
2026-05-04 12:31 3.23311 -49.52429 36968 ft 472 kts 290°
2026-05-04 12:31 3.25777 -49.58528 36967 ft 472 kts 291°
2026-05-04 12:32 3.29459 -49.67638 36968 ft 473 kts 291°
2026-05-04 12:33 3.31933 -49.73764 36968 ft 474 kts 291°
2026-05-04 12:33 3.34400 -49.79869 36967 ft 473 kts 291°
2026-05-04 12:34 3.36863 -49.85968 36969 ft 472 kts 291°
2026-05-04 12:34 3.39322 -49.92059 36968 ft 472 kts 291°
2026-05-04 12:35 3.41781 -49.98148 36969 ft 472 kts 291°
2026-05-04 12:35 3.44239 -50.04239 36970 ft 472 kts 291°
2026-05-04 12:36 3.46698 -50.10331 36968 ft 471 kts 291°
2026-05-04 12:36 3.49151 -50.16412 36972 ft 471 kts 290°
2026-05-04 12:37 3.51584 -50.22445 36969 ft 469 kts 291°
2026-05-04 12:37 3.54024 -50.28494 36972 ft 468 kts 291°
2026-05-04 12:38 3.56457 -50.34529 36971 ft 467 kts 291°
2026-05-04 12:38 3.58891 -50.40567 36971 ft 468 kts 290°
2026-05-04 12:39 3.61324 -50.46603 36969 ft 467 kts 291°
2026-05-04 12:39 3.63758 -50.52644 36975 ft 466 kts 291°
2026-05-04 12:40 3.66181 -50.58657 36976 ft 466 kts 291°
2026-05-04 12:40 3.68610 -50.64689 36975 ft 467 kts 291°
2026-05-04 12:41 3.71039 -50.70722 36976 ft 468 kts 291°
2026-05-04 12:41 3.73459 -50.76730 36594 ft 460 kts 291°
2026-05-04 12:41 3.74638 -50.79659 35986 ft 461 kts 291°
2026-05-04 12:42 3.75836 -50.82637 35426 ft 461 kts 290°
2026-05-04 12:42 3.77034 -50.85614 34869 ft 461 kts 290°
2026-05-04 12:42 3.78233 -50.88593 34225 ft 463 kts 290°
2026-05-04 12:42 3.79440 -50.91595 33354 ft 469 kts 290°
2026-05-04 12:43 3.80639 -50.94578 32481 ft 474 kts 290°
2026-05-04 12:43 3.81878 -50.97659 31601 ft 478 kts 290°
2026-05-04 12:43 3.83127 -51.00764 30713 ft 483 kts 290°
2026-05-04 12:43 3.84382 -51.03883 30036 ft 482 kts 290°
2026-05-04 12:44 3.85632 -51.06991 29394 ft 478 kts 291°
2026-05-04 12:44 3.86870 -51.10067 28770 ft 474 kts 290°
2026-05-04 12:44 3.88095 -51.13114 28167 ft 469 kts 291°
2026-05-04 12:44 3.89309 -51.16133 27555 ft 466 kts 291°
2026-05-04 12:45 3.90512 -51.19128 26943 ft 462 kts 291°
2026-05-04 12:45 3.91708 -51.22105 26333 ft 460 kts 291°
2026-05-04 12:45 3.92897 -51.25065 25711 ft 457 kts 292°
2026-05-04 12:45 3.94081 -51.28013 25094 ft 455 kts 292°
2026-05-04 12:46 3.95261 -51.30950 24473 ft 453 kts 292°
2026-05-04 12:46 3.96433 -51.33868 23855 ft 451 kts 292°
2026-05-04 12:46 3.97600 -51.36774 23162 ft 449 kts 292°
2026-05-04 12:46 3.98759 -51.39661 22516 ft 445 kts 292°
2026-05-04 12:47 3.99893 -51.42484 21906 ft 440 kts 293°
2026-05-04 12:47 4.01042 -51.45348 21277 ft 435 kts 293°
2026-05-04 12:47 4.02153 -51.48114 20695 ft 431 kts 293°
2026-05-04 12:47 4.03281 -51.50923 20089 ft 428 kts 293°
2026-05-04 12:48 4.04371 -51.53639 19509 ft 424 kts 293°
2026-05-04 12:48 4.05466 -51.56370 18909 ft 421 kts 293°
2026-05-04 12:48 4.06556 -51.59085 18327 ft 418 kts 293°
2026-05-04 12:48 4.07637 -51.61779 17655 ft 415 kts 293°
2026-05-04 12:49 4.08708 -51.64448 17065 ft 411 kts 293°
2026-05-04 12:49 4.09770 -51.67097 16474 ft 408 kts 293°
2026-05-04 12:49 4.10828 -51.69735 15885 ft 406 kts 293°
2026-05-04 12:49 4.11879 -51.72354 15291 ft 404 kts 293°
2026-05-04 12:50 4.12924 -51.74962 14707 ft 402 kts 293°
2026-05-04 12:50 4.13966 -51.77558 14114 ft 401 kts 293°
2026-05-04 12:50 4.15002 -51.80143 13491 ft 399 kts 293°
2026-05-04 12:50 4.16031 -51.82711 12870 ft 395 kts 293°
2026-05-04 12:51 4.17049 -51.85250 12278 ft 390 kts 293°
2026-05-04 12:51 4.18055 -51.87760 11702 ft 385 kts 293°
2026-05-04 12:51 4.19046 -51.90234 11129 ft 380 kts 293°
2026-05-04 12:51 4.20030 -51.92667 10584 ft 375 kts 294°
2026-05-04 12:52 4.21083 -51.94983 10463 ft 355 kts 297°
2026-05-04 12:52 4.22232 -51.97103 10386 ft 337 kts 302°
2026-05-04 12:52 4.23454 -51.99010 10250 ft 323 kts 306°
2026-05-04 12:52 4.24772 -52.00774 10104 ft 310 kts 310°
2026-05-04 12:53 4.26157 -52.02386 9805 ft 303 kts 314°
2026-05-04 12:53 4.27642 -52.03892 9337 ft 303 kts 318°
2026-05-04 12:53 4.29209 -52.05280 8948 ft 299 kts 322°
2026-05-04 12:53 4.30850 -52.06551 8558 ft 296 kts 326°
2026-05-04 12:54 4.32555 -52.07701 8188 ft 293 kts 330°
2026-05-04 12:54 4.34287 -52.08769 7803 ft 291 kts 331°
2026-05-04 12:54 4.36015 -52.09816 7436 ft 289 kts 331°
2026-05-04 12:54 4.37732 -52.10854 7054 ft 288 kts 331°
2026-05-04 12:55 4.39440 -52.11890 6666 ft 286 kts 331°
2026-05-04 12:55 4.41118 -52.12909 6283 ft 285 kts 331°
2026-05-04 12:55 4.42810 -52.13936 5898 ft 284 kts 331°
2026-05-04 12:55 4.44498 -52.14961 5732 ft 284 kts 331°
2026-05-04 12:56 4.46192 -52.15989 5519 ft 284 kts 331°
2026-05-04 12:56 4.47873 -52.17009 5275 ft 282 kts 331°
2026-05-04 12:56 4.49547 -52.18028 5035 ft 281 kts 331°
2026-05-04 12:56 4.51133 -52.19164 4795 ft 283 kts 318°
2026-05-04 12:57 4.52435 -52.20644 4558 ft 283 kts 310°
2026-05-04 12:57 4.53641 -52.22207 4311 ft 283 kts 309°
2026-05-04 12:57 4.54838 -52.23764 4070 ft 282 kts 310°
2026-05-04 12:57 4.56047 -52.25305 3891 ft 281 kts 310°
2026-05-04 12:58 4.57257 -52.26845 3795 ft 281 kts 310°
2026-05-04 12:58 4.58465 -52.28382 3702 ft 281 kts 310°
2026-05-04 12:58 4.59666 -52.29924 3612 ft 279 kts 310°
2026-05-04 12:58 4.60850 -52.31458 3507 ft 278 kts 310°
2026-05-04 12:59 4.62034 -52.32989 3404 ft 278 kts 310°
2026-05-04 12:59 4.63215 -52.34517 3210 ft 277 kts 310°
2026-05-04 12:59 4.64394 -52.36041 3012 ft 276 kts 310°
2026-05-04 12:59 4.65552 -52.37543 2817 ft 275 kts 310°
2026-05-04 13:00 4.66744 -52.39073 2632 ft 275 kts 310°
2026-05-04 13:00 4.67904 -52.40553 2423 ft 270 kts 310°
2026-05-04 13:00 4.69042 -52.42006 2241 ft 261 kts 310°
2026-05-04 13:00 4.70148 -52.43415 2054 ft 252 kts 310°
2026-05-04 13:01 4.71206 -52.44761 2004 ft 241 kts 310°
2026-05-04 13:01 4.72201 -52.46034 2022 ft 222 kts 309°
2026-05-04 13:01 4.73149 -52.47153 2008 ft 198 kts 325°
2026-05-04 13:01 4.74322 -52.47561 2004 ft 170 kts
2026-05-04 13:02 4.75468 -52.47562 1978 ft 159 kts
2026-05-04 13:02 4.76488 -52.47342 1919 ft 149 kts 41°
2026-05-04 13:02 4.77175 -52.46568 1919 ft 155 kts 62°
2026-05-04 13:02 4.77675 -52.45533 1729 ft 172 kts 67°
2026-05-04 13:03 4.78181 -52.44429 1482 ft 176 kts 66°
2026-05-04 13:03 4.78686 -52.43337 1260 ft 164 kts 66°
2026-05-04 13:03 4.79137 -52.42356 1061 ft 147 kts 67°
2026-05-04 13:03 4.79549 -52.41457 879 ft 138 kts 65°
2026-05-04 13:04 4.79932 -52.40611 729 ft 129 kts 68°
2026-05-04 13:04 4.80298 -52.39810 579 ft 125 kts 66°
2026-05-04 13:04 4.80659 -52.39005 458 ft 128 kts 65°
2026-05-04 13:04 4.81036 -52.38196 325 ft 130 kts 65°
2026-05-04 13:05 4.81414 -52.37379 150 ft 128 kts 64°
2026-05-04 13:05 4.81770 -52.36616 91 ft 109 kts 65°
2026-05-04 13:05 4.81984 -52.36153 93 ft 32 kts 65°
2026-05-04 13:05 4.82063 -52.35993 94 ft 23 kts 52°
2026-05-04 13:06 4.82162 -52.36011 94 ft 16 kts 312°
2026-05-04 13:06 4.82182 -52.36117 91 ft 10 kts 256°
2026-05-04 13:06 4.82151 -52.36187 90 ft 12 kts 244°
2026-05-04 13:06 4.82129 -52.36252 92 ft 3 kts 283°
2026-05-04 13:07 4.82155 -52.36272 91 ft 8 kts 335°
2026-05-04 13:07 4.82192 -52.36287 93 ft 0 kts 337°